User: anonymous   Login
Location: Unspecified
(0.0000°N, 0.0000°E)
Time: 00:21:15
(UTC+00:00)
Language:

CANX-2 - Orbit

View from above orbital plane
View from above orbital plane
View from above satellite
View from above satellite

Ground track
Ground track

The orbit data is extracted from the following two-line orbital elements,

1 32790U 08021H   17231.11288228 +.00000250 +00000-0 +33125-4 0  9993
2 32790 097.5624 250.8376 0012874 327.4411 032.6011 14.87647983504112
Epoch (UTC): 19 August 2017 02:42:33
Eccentricity: 0.0012874
inclination: 97.5624°
perigee height: 596 km
apogee height: 614 km
right ascension of ascending node: 250.8376°
argument of perigee: 327.4411°
revolutions per day: 14.87647983
mean anomaly at epoch: 32.6011°
orbit number at epoch: 50411

The dashed part of the orbit path shows where the satellite is in the earth's shadow,  

DLR